Погода в Шорчекасах

Россия / Чувашская Республика     55°58′34″N   47°28′22″E
темп.,
°C
ветер,
м/с
пор.,
м/с
влажн.,
%
обл.,
%
осадки,
мм/ч
давл.,
гПа
погр.,
м
7 мая, пт
пт700:00+10ю41381100 0.0 1013271
03:00+10ю41278100 0.0 1012262
06:00+11ю41274100 0.0 1012305
09:00+14ю71263100 0.0 1012615
12:00+17ю81252100 0.0 10112099
15:00+16ююз61159100 0.6 10111554
18:00+11з6887100 1.1 1012471
21:00+7ссз3689100 1.4 1015351
8 мая, сб
сб800:00+6сз2292100 0.0 101732
03:00+6ссз2290100 0.0 101834
06:00+7св2385100 0.0 1018164
09:00+11всв466872 0.0 1017717
12:00+10в4575100 0.0 1017445
15:00+14юв356985 0.0 1015976
18:00+13ююв2679100 0.0 1013166
21:00+9ююв3792100 0.0 1013133
9 мая, вс
вс900:00+8юв3791100 0.0 1012134
03:00+8ююв3492100 0.0 101160
06:00+11ююв4118197 0.0 1011291
09:00+13ю41176100 0.1 1012433
12:00+15ююв61270100 0.1 1012636
15:00+17ююв61065100 0.1 1012888
18:00+13ююв2286100 0.2 101349
21:00+12ю3894100 1.9 1015235
10 мая, пн
пн1000:00+11ссв2296100 1.4 101625
03:00+10с2397100 1.4 101868
06:00+10ссз4696100 0.1 1020251
09:00+11ссз6789100 0.1 1022416
12:00+14с5578100 0.0 1023612
15:00+14с567598 0.0 1025701
18:00+12с578079 0.0 1026713
21:00+10ссв597893 0.0 1028695
11 мая, вт
вт1100:00+8ссв49876 0.0 1028256
03:00+6ссв389423 0.0 1029170
06:00+8ссв498574 0.0 1030340
09:00+13св685628 0.0 1031810
12:00+16св56395 0.0 10301117
15:00+18св45390 0.0 10291280
18:00+15св36605 0.0 1029157
21:00+10св33695 0.0 103028